www.pogodaiklimat.ru

Погода и климат >> Архив погоды >> Кувейт >> Абраке Аль Хабари


ПОГОДА на Абраке Аль Хабари

  • Прогноз погоды на Абраке Аль Хабари
  • Монитор погоды на Абраке Аль Хабари

АРХИВ ПОГОДЫ на Абраке Аль Хабари

Время (UTC), дата Ветер
(напр.,м/с)
 
Видим.   Явления Облачность Т
(С)
Тd
(С)
f
(%)
Тe
(С)
Тes
(С)
Комфортность P
(гПа)
Po
(гПа)
Тmin
(С)
Tmax
(С)
R
(мм)
R24
(мм)
S
(см)
21 13.08 СЗ 3-4
{6}
18 км н/о +35.3 +4.1 14 +32 +32 жарко 999.0 973.1 +32.0 +46.8
00 14.08 З 4-6
{6}
19 км н/о +33.1 +3.3 15 +30 +30 жарко 999.3 973.2
03 14.08 СЗ 8-11
{12}
18 км н/о +34.7 +1.9 13 +32 +32 жарко 1000.2 974.2
06 14.08 СЗ 7-10
{12}
18 км н/о +39.2 +2.9 11 +36 +36 очень
жарко
1001.2 975.6
09 14.08 С 8-11
{12}
17 км н/о +44.7 +5.1 9 +42 +42 опасность
перегрева
999.8 974.6
12 14.08 СЗ 6-9
{12}
17 км н/о +45.3 +3.7 8 +42 +42 опасность
перегрева
998.4 973.3
15 14.08 СЗ 6-7
{9}
17 км н/о +44.4 +4.0 9 +41 +41 опасность
перегрева
998.5 973.4
18 14.08 СЗ 4-4
{9}
18 км н/о +38.7 +3.8 12 +36 +36 очень
жарко
1000.4 974.8
21 14.08 СЗ 4-5
{5}
18 км н/о +36.5 +4.3 14 +34 +34 очень
жарко
1000.2 974.4 +32.5 +46.1
00 15.08 СЗ 7-8
{10}
20 км н/о +35.2 +0.1 11 +32 +32 жарко 1000.9 975.0
03 15.08 СЗ 8-10
{11}
20 км н/о +33.8 -0.4 11 +30 +30 жарко 1002.0 975.9
06 15.08 СЗ 11-14
{14}
19 км н/о +39.7 +1.9 10 +36 +36 очень
жарко
1002.8 977.2
09 15.08 СЗ 11-14
{16}
17 км н/о +44.8 +3.3 8 +42 +42 опасность
перегрева
1001.4 976.2
12 15.08 СЗ 8-11
{16}
18 км н/о +45.5 +3.9 8 +42 +42 опасность
перегрева
999.7 974.6
15 15.08 СЗ 6-9
{13}
19 км н/о +43.5 +2.5 8 +40 +40 очень
жарко
999.6 974.4
18 15.08 З 4-5
{13}
19 км н/о +37.7 +1.9 11 +34 +34 очень
жарко
1002.0 976.2
21 15.08 З 7-10
{10}
19 км н/о +35.6 +0.6 11 +32 +32 жарко 1002.4 976.4 +33.7 +46.3
00 16.08 З 7-9
{10}
20 км н/о +33.9 -0.7 11 +30 +30 жарко 1002.2 976.1
03 16.08 З 6-9
{10}
20 км н/о +32.6 -0.9 12 +29 +29 жарко 1003.7 977.5
06 16.08 СЗ 10-13
{14}
16 км н/о +39.5 -1.3 8 +36 +36 очень
жарко
1003.6 977.9
09 16.08 СЗ 9-13
{15}
19 км н/о +42.6 +1.4 8 +39 +39 очень
жарко
1002.2 976.8
12 16.08 З 9-15
{16}
17 км н/о +43.6 +0.4 7 +40 +40 очень
жарко
1000.1 974.9
15 16.08 З 8-12
{15}
20 км н/о +41.4 -3.4 6 +37 +37 очень
жарко
999.7 974.3
18 16.08 З 4-6
{15}
19 км н/о +34.0 -3.0 9 +30 +30 жарко 1001.6 975.5
21 16.08 З 6-7
{7}
19 км н/о +31.9 +0.5 13 +29 +29 жарко 1001.2 975.0 +31.3 +44.7
00 17.08 СЗ 8-10
{11}
20 км н/о +30.8 +1.7 16 +28 +28 жарко 1000.7 974.4
03 17.08 З 5-6
{10}
19 км н/о +28.6 -0.3 15 +26 +26 жарко 1001.6 975.1
06 17.08 СЗ 9-12
{12}
19 км н/о +37.0 +0.6 10 +33 +33 жарко 1001.9 976.1
09 17.08 СЗ 11-17
{17}
12 км н/о +42.0 -0.8 7 +38 +38 очень
жарко
1000.7 975.3
12 17.08 СЗ 11-16
{17}
16 км н/о +42.1 -1.2 7 +38 +38 очень
жарко
998.7 973.4
15 17.08 СЗ 11-14
{17}
16 км н/о +40.2 -0.1 8 +36 +36 очень
жарко
998.7 973.2
18 17.08 З 5-6
{17}
17 км н/о +34.5 -0.2 11 +31 +31 жарко 1000.0 974.0
21 17.08 З 4-5
{5}
20 км н/о +30.8 -0.3 13 +28 +28 жарко 1000.0 973.7 +28.4 +43.0
00 18.08 З 4-6
{6}
19 км н/о +29.3 +0.2 15 +27 +27 жарко 1000.1 973.7
03 18.08 ЮЗ 3-4
{8}
16 км н/о +28.3 +0.7 17 +26 +26 жарко 1001.2 974.7
06 18.08 З 2-3
{8}
19 км н/о +37.9 +2.1 11 +35 +35 очень
жарко
1001.6 975.9
09 18.08 СЗ 5-10
{12}
17 км н/о +41.2 +5.9 12 +39 +39 очень
жарко
1000.9 975.4
12 18.08 З 5-9
{12}
19 км н/о +41.8 +6.7 12 +39 +39 очень
жарко
999.8 974.4
15 18.08 СЗ 7-8
{11}
19 км н/о +40.4 +9.2 15 +38 +38 очень
жарко
1000.3 974.8
18 18.08 С 3-4
{11}
19 км н/о +35.9 +8.2 18 +34 +34 очень
жарко
1002.2 976.3
21 18.08 В 3-3
{5}
18 км н/о +32.3 +6.8 20 +30 +30 жарко 1002.5 976.3 +28.1 +42.5
00 19.08 В 2-2
{5}
18 км в посл. час туман {дымка} н/о +30.7 +6.8 22 +29 +29 жарко 1002.2 975.8
03 19.08 З 4-5
{6}
15 км {туман, дымка} н/о +29.3 +6.8 24 +28 +28 жарко 1004.1 977.6
06 19.08 З 3-4
{6}
18 км {туман, дымка} н/о +38.3 +8.1 16 +36 +36 очень
жарко
1004.5 978.7
09 19.08 СЗ 6-10
{10}
19 км н/о +42.0 +4.8 10 +39 +39 очень
жарко
1003.6 978.1
12 19.08 СЗ 9-15
{15}
19 км н/о +43.2 +3.5 9 +40 +40 очень
жарко
1002.5 977.2
15 19.08 СЗ 7-9
{14}
19 км н/о +41.5 +2.9 9 +38 +38 очень
жарко
1003.0 977.5
18 19.08 С 4-4
{14}
19 км н/о +36.0 +2.8 13 +33 +33 жарко 1004.7 978.7
21 19.08 С 2-2
{5}
20 км н/о +33.0 +2.7 15 +30 +30 жарко 1004.3 978.1 +28.0 +43.9
00 20.08 ЮЗ 2-2
{5}
15 км н/о +29.4 +3.8 20 +28 +28 жарко 1003.8 977.3
03 20.08 ЮВ 2-3
{3}
14 км дым н/о +29.2 +4.0 20 +27 +27 жарко 1005.0 978.4
06 20.08 З 2-3
{3}
18 км н/о +39.5 +5.1 12 +37 +37 очень
жарко
1005.3 979.6
09 20.08 СЗ 3-5
{6}
19 км н/о +43.7 +3.8 9 +41 +41 опасность
перегрева
1004.1 978.8
12 20.08 С 7-10
{12}
17 км н/о +44.8 +4.0 9 +42 +42 опасность
перегрева
1002.6 977.4
15 20.08 СЗ 6-8
{13}
19 км н/о +42.9 +2.6 9 +40 +40 очень
жарко
1002.5 977.1
18 20.08 С 3-4
{13}
18 км н/о +37.4 +1.9 11 +34 +34 очень
жарко
1003.8 978.0

 

Местоположение метеостанции Абраке Аль Хабари (Кувейт): широта 29.30 долгота 47.00 высота над уровнем моря 237 м.

В архиве по умолчанию представлена погода на Абраке Аль Хабари за последнюю неделю. Архивные данные за месяц целиком и за предыдущие месяцы, начиная с января 2011 года, Вы можете получить, выбрав интересующий диапазон дат из раскрывающегося списка и нажав кнопку "Ввод!".


*Определитесь, кто Вы:
робот инопланетянин человек

Внимание! Время в таблицах - всемирное. Для получения местного времени необходимо прибавить поправку, которая равна 3 ч.

Смотрите также архив погоды в соседних городах и на ближайших метеорологических станциях:

Погода на Аль-Салми (Кувейт) (38 км)
Погода в Минагише (Кувейт) (57 км)
Погода в Эль-Джахра (Кувейт) (65 км)
Погода на Метеостанции Jal Aliyah (Кувейт) (66 км)
Погода на Метеостанции Mintribah (Кувейт) (68 км)
Погода в Сулайбии (Кувейт) (70 км)
Погода на Экспериментальной ферме (Кувейт) (91 км)
Погода в Эль-Кувейте (Кувейт) (95 км)
Погода на Метеостанции Sabriyah (Кувейт) (96 км)
Погода в Кувейт Сити (Кувейт) (102 км)

Пояснения к столбцам:

Ветер - указаны скорость ветра в м/с - средняя за 10 мин, порывы в срок и между сроками (в фигурных скобках) и направление, откуда дует ветер: С - северный, СВ - северо-восточный, В - восточный, ЮВ - юго-восточный, Ю - южный, ЮЗ - юго-западный, З - западный, СЗ - северо-западный.
Видимость - горизонтальная дальность видимости в метрах или километрах. При видимости от 1 до 10 км при отсутствии осадков обычно наблюдается дымка, при ухудшении видимости до 1 км и менее - туман. В сухую погоду видимость может ухудшаться дымом, пылью или мглою.
Явления - указаны атмосферные явления, наблюдавшиеся в срок или в последний час перед сроком; фигурными скобками обозначены явления, наблюдавшиеся между сроками (за 1-3 часа до срока); квадратными скобками обозначены град или гололедные отложения с указанием их диаметра в мм.
Облачность - указаны через наклонную черту общая и нижняя облачность в баллах и высота нижней границы облаков в метрах; квадратными скобками обозначены формы облаков: Ci - перистые, Cs - перисто-слоистые, Cc - перисто-кучевые, Ac - высококучевые, As - высокослоистые, Sc - слоисто-кучевые, Ns - слоисто-дождевые, Cu - кучевые, Cb - кучево-дождевые. Подробнее классификацию облаков см. в Атласе облаков (PDF).
T - Температура воздуха - температура, измеренная на высоте 2 м над землей.
Td - Температура точки росы - температура, при понижении до которой содержащийся в воздухе водяной пар достигнет насыщения.
f - Относительная влажность воздуха - влажноcть воздуха, измеренная на высоте 2 м над землей.
Te - Эффективная температура - температура, которую ощущает одетый по сезону человек в тени. Характеристика душности погоды. При расчете учитывается влияние влажности воздуха и скорости ветра на теплоощущения человека.
Tes - Эффективная температура на солнце - температура, которую ощущает человек, с поправкой на солнечный нагрев. Характеристика знойности погоды. Зависит от высоты солнца над горизонтом, облачности и скорости ветра. Ночью, в пасмурную погоду, а также при ветре 12 м/с и более поправка равна нулю.
P - Атмосферное давление - приведенное к уровню моря атмосферное давление.
Po - Атмосферное давление - измеренное на уровне метеостанции атмосферное давление.
Tmin - Минимальная температура - минимум температуры воздуха на высоте 2 м над землей.
Tmax - Максимальная температура - максимум температуры воздуха на высоте 2 м над землей.
R - Количество осадков - Количество выпавших осадков за период времени, мм. При наведении курсора мыши на число - период времени, за который выпало указанное количество осадков.
R24 - Количество осадков - Количество выпавших осадков за 24 часа, мм.
S - Снежный покров - Высота снежного покрова, см. При наведении курсора мыши на число - состояние снежного покрова и степень покрытия местности в баллах.